"startDT [UTC]","vpos","CH4 [ppm]","stdev(CH4) [ppm]","CO2 [ppm]","stdev(CO2) [ppm]","H2O_reported [%]","stdev(H2O_reported)","CavityPressure [torr]","CavityTemp [C]","OutletValve","CH4_dry [ppm]","CO2_dry [ppm]","DasTemp [C]","EtalonTemp [C]","WarmBoxTemp [C]","MPVPosition","T_ECpre [C]","T_EC1 [C]","T_EC2 [C]","p_inlet [hPa]","p_in [hPa]","p_out [hPa]","T_inlet [C]","RH_inlet [%]","dwpt_inlet [C]","T_vent [C]","RH_vent [%]","dwpt_vent [C]","flow_vent [l min-1]","flow_inlet [l min-1]","dwpt_sample [C]","T_room [C]"
2015-11-24 00:00:00,0.0,1.92324,0.00045,401.733,0.034,0.1633,0.0022,139.998,45.000,31710.99534,1.92638,402.526,33.191,45.070,45.000,0.00,0.09,-272.75,-272.81,-6,524,-952,19.4,5.6,-19.9,19.6,5.7,-19.6,5.73,1.94,-14.2,25.7
2015-11-24 00:01:00,0.0,1.92306,0.00048,401.743,0.037,0.1634,0.0017,140.000,45.000,31711.37836,1.92615,402.535,33.203,45.069,45.000,0.00,0.09,-272.74,-272.81,-7,524,-952,19.5,5.6,-19.9,19.6,5.7,-19.7,5.73,2.01,-14.2,25.7
2015-11-24 00:02:00,0.0,1.92319,0.00039,401.767,0.037,0.1641,0.0023,139.998,45.000,31710.84522,1.92626,402.562,33.193,45.069,45.000,0.00,0.09,-272.74,-272.79,-7,524,-952,19.4,5.6,-19.9,19.6,5.7,-19.7,5.73,2.07,-14.3,25.7
2015-11-24 00:03:00,0.0,1.92298,0.00033,401.785,0.029,0.1633,0.0017,139.999,45.000,31712.73137,1.92612,402.575,33.188,45.069,45.000,0.00,0.09,-272.75,-272.80,-7,524,-952,19.5,5.6,-19.9,19.6,5.7,-19.7,5.73,2.10,-14.2,25.7
2015-11-24 00:04:00,0.0,1.92307,0.00033,401.755,0.035,0.1637,0.0023,140.000,45.000,31710.81135,1.92617,402.549,33.188,45.070,45.000,0.00,0.09,-272.75,-272.80,-6,524,-952,19.5,5.6,-19.9,19.6,5.7,-19.7,5.73,2.08,-14.2,25.7
2015-11-24 00:05:00,0.0,1.92309,0.00041,401.772,0.041,0.1644,0.0020,139.997,45.000,31709.66920,1.92619,402.570,33.188,45.070,45.000,0.00,0.09,-272.74,-272.80,-6,524,-952,19.4,5.6,-19.9,19.6,5.7,-19.7,5.73,2.02,-14.2,25.7
2015-11-24 00:06:00,0.0,1.92304,0.00045,401.756,0.034,0.1651,0.0016,139.999,45.000,31709.39200,1.92619,402.556,33.192,45.070,45.000,0.00,0.09,-272.74,-272.79,-6,524,-952,19.4,5.6,-19.9,19.6,5.7,-19.6,5.73,1.95,-14.2,25.7
2015-11-24 00:07:00,0.0,1.92279,0.00048,401.718,0.038,0.1635,0.0019,140.000,45.000,31711.60130,1.92590,402.511,33.189,45.070,45.000,0.00,0.09,-272.75,-272.81,-6,524,-952,19.4,5.6,-19.9,19.6,5.7,-19.6,5.73,1.91,-14.2,25.7
2015-11-24 00:08:00,0.0,1.92322,0.00037,401.781,0.030,0.1621,0.0016,139.997,45.000,31709.82786,1.92629,402.566,33.189,45.070,45.000,0.00,0.09,-272.74,-272.81,-6,524,-952,19.4,5.5,-20.0,19.6,5.6,-19.7,5.73,1.93,-14.2,25.7
2015-11-24 00:09:00,0.0,1.92302,0.00033,401.788,0.027,0.1620,0.0012,139.997,45.000,31710.77013,1.92612,402.574,33.187,45.070,45.000,0.00,0.09,-272.74,-272.78,-6,524,-952,19.4,5.5,-20.1,19.6,5.6,-19.8,5.73,1.99,-14.2,25.7
2015-11-24 00:10:00,0.0,1.92314,0.00040,401.832,0.039,0.1627,0.0021,139.997,45.000,31711.19060,1.92622,402.619,33.187,45.070,45.000,0.00,0.09,-272.75,-272.79,-6,524,-952,19.4,5.5,-20.0,19.6,5.6,-19.8,5.73,2.06,-14.2,25.7
2015-11-24 00:11:00,0.0,1.92299,0.00043,401.798,0.029,0.1629,0.0016,140.000,45.000,31711.65153,1.92606,402.589,33.188,45.070,45.000,0.00,0.09,-272.75,-272.80,-6,524,-952,19.4,5.5,-20.0,19.6,5.6,-19.7,5.73,2.10,-14.3,25.7
2015-11-24 00:12:00,0.0,1.92341,0.00039,401.802,0.023,0.1620,0.0020,140.000,45.000,31709.68223,1.92648,402.588,33.186,45.070,45.000,0.00,0.08,-272.74,-272.79,-6,524,-952,19.4,5.5,-20.0,19.6,5.6,-19.7,5.73,2.09,-14.2,25.7
2015-11-24 00:13:00,0.0,1.92332,0.00037,401.794,0.038,0.1632,0.0018,139.999,45.000,31709.48375,1.92643,402.585,33.175,45.070,45.000,0.00,0.09,-272.75,-272.81,-6,524,-952,19.5,5.6,-20.0,19.6,5.6,-19.7,5.73,2.03,-14.2,25.7
2015-11-24 00:14:00,0.0,1.92344,0.00045,401.856,0.032,0.1635,0.0015,139.999,45.000,31708.89722,1.92653,402.648,33.146,45.070,45.000,0.00,0.09,-272.74,-272.81,-6,524,-952,19.5,5.5,-20.0,19.6,5.6,-19.7,5.73,1.96,-14.3,25.7
2015-11-24 00:15:00,0.0,1.92343,0.00052,401.854,0.036,0.1617,0.0014,139.998,45.000,31711.89682,1.92652,402.639,33.125,45.070,45.000,0.00,0.09,-272.74,-272.81,-6,524,-952,19.4,5.5,-20.1,19.6,5.6,-19.8,5.73,1.92,-14.3,25.7
2015-11-24 00:16:00,0.0,1.92306,0.00034,401.811,0.036,0.1624,0.0017,139.996,45.000,31712.10271,1.92613,402.599,33.126,45.070,45.000,0.00,0.09,-272.74,-272.80,-6,524,-952,19.4,5.5,-20.0,19.6,5.6,-19.8,5.73,1.92,-14.2,25.7
2015-11-24 00:17:00,0.0,1.92303,0.00038,401.802,0.033,0.1633,0.0015,139.998,45.000,31712.35366,1.92614,402.593,33.127,45.070,45.000,0.00,0.09,-272.75,-272.78,-6,524,-952,19.5,5.5,-20.0,19.6,5.6,-19.8,5.73,1.97,-14.2,25.7
2015-11-24 00:18:00,0.0,1.92284,0.00038,401.785,0.024,0.1637,0.0016,140.000,45.000,31710.95098,1.92598,402.580,33.127,45.070,45.000,0.00,0.09,-272.74,-272.80,-6,524,-952,19.5,5.6,-20.0,19.6,5.6,-19.7,5.73,2.05,-14.2,25.7
2015-11-24 00:19:00,0.0,1.92268,0.00039,401.774,0.039,0.1647,0.0018,139.999,45.000,31710.19279,1.92577,402.573,33.132,45.070,45.000,0.00,0.09,-272.75,-272.80,-6,524,-952,19.5,5.6,-19.9,19.6,5.7,-19.7,5.73,2.10,-14.2,25.7
2015-11-24 00:20:00,0.0,1.92302,0.00028,401.802,0.027,0.1624,0.0016,140.000,45.000,31709.51417,1.92610,402.590,33.126,45.070,45.000,0.00,0.09,-272.75,-272.80,-7,524,-952,19.4,5.5,-20.0,19.6,5.7,-19.7,5.73,2.10,-14.3,25.7
2015-11-24 00:21:00,0.0,1.92322,0.00035,401.847,0.034,0.1629,0.0011,140.000,45.000,31708.09355,1.92631,402.636,33.122,45.070,45.000,0.00,0.09,-272.73,-272.80,-6,524,-952,19.5,5.5,-20.0,19.6,5.6,-19.7,5.73,2.04,-14.2,25.7
2015-11-24 00:22:00,0.0,1.92319,0.00040,401.840,0.026,0.1611,0.0019,139.999,45.000,31707.67483,1.92623,402.622,33.124,45.070,45.000,0.00,0.09,-272.74,-272.79,-6,524,-952,19.5,5.5,-20.1,19.6,5.6,-19.8,5.73,1.97,-14.2,25.7
2015-11-24 00:23:00,0.0,1.92310,0.00041,401.823,0.025,0.1605,0.0017,140.000,45.000,31707.29605,1.92615,402.602,33.127,45.070,45.000,0.00,0.09,-272.74,-272.81,-6,524,-952,19.4,5.5,-20.1,19.6,5.6,-19.9,5.73,1.91,-14.2,25.7
2015-11-24 00:24:00,0.0,1.92320,0.00032,401.813,0.042,0.1615,0.0018,139.998,45.000,31705.31480,1.92627,402.597,33.127,45.070,45.000,0.00,0.09,-272.74,-272.80,-6,524,-952,19.5,5.5,-20.1,19.6,5.6,-19.8,5.73,1.91,-14.3,25.7
2015-11-24 00:25:00,0.0,1.92282,0.00046,401.789,0.042,0.1623,0.0020,139.998,44.999,31706.64140,1.92592,402.576,33.126,45.069,45.000,0.00,0.09,-272.74,-272.80,-6,524,-952,19.5,5.5,-20.1,19.6,5.6,-19.8,5.73,1.96,-14.3,25.7
2015-11-24 00:26:00,0.0,1.92273,0.00038,401.756,0.044,0.1620,0.0020,140.000,45.000,31707.80966,1.92581,402.540,33.128,45.070,45.000,0.00,0.09,-272.75,-272.80,-6,524,-952,19.4,5.5,-20.1,19.6,5.6,-19.8,5.73,2.04,-14.3,25.7
2015-11-24 00:27:00,0.0,1.92265,0.00042,401.751,0.036,0.1642,0.0020,139.998,45.000,31706.73242,1.92574,402.549,33.148,45.069,45.000,0.00,0.09,-272.75,-272.80,-6,524,-952,19.4,5.6,-19.9,19.6,5.6,-19.7,5.73,2.09,-14.3,25.7
2015-11-24 00:28:00,0.0,1.92239,0.00041,401.700,0.027,0.1640,0.0025,140.001,45.000,31708.44186,1.92552,402.495,33.154,45.069,45.000,0.00,0.09,-272.75,-272.81,-6,524,-952,19.5,5.6,-19.9,19.6,5.7,-19.7,5.73,2.10,-14.2,25.7
2015-11-24 00:29:00,0.0,1.92214,0.00039,401.668,0.038,0.1654,0.0016,139.996,45.000,31706.93350,1.92528,402.471,33.148,45.069,45.000,0.00,0.09,-272.74,-272.81,-6,524,-952,19.4,5.6,-19.9,19.6,5.7,-19.6,5.73,2.05,-14.3,25.7
2015-11-24 00:30:00,0.0,1.92244,0.00050,401.693,0.030,0.1646,0.0025,140.000,45.000,31705.52921,1.92559,402.490,33.163,45.069,45.000,0.00,0.09,-272.74,-272.81,-7,524,-952,19.5,5.6,-19.9,19.6,5.7,-19.6,5.73,1.98,-14.3,25.7
2015-11-24 00:31:00,0.0,1.92206,0.00021,401.654,0.037,0.1650,0.0019,140.000,45.000,31706.94293,1.92518,402.455,33.155,45.069,45.000,0.00,0.09,-272.75,-272.81,-7,524,-952,19.5,5.6,-19.9,19.6,5.7,-19.6,5.73,1.92,-14.3,25.7
2015-11-24 00:32:00,0.0,1.92200,0.00035,401.588,0.029,0.1643,0.0022,139.998,45.000,31704.30104,1.92513,402.386,33.163,45.069,45.000,0.00,0.09,-272.74,-272.79,-6,524,-952,19.5,5.6,-19.9,19.6,5.7,-19.6,5.73,1.90,-14.3,25.7
2015-11-24 00:33:00,0.0,1.92178,0.00034,401.578,0.032,0.1656,0.0021,140.002,45.000,31704.62309,1.92492,402.381,33.135,45.069,45.000,0.00,0.09,-272.74,-272.80,-6,524,-952,19.5,5.6,-19.9,19.6,5.7,-19.6,5.73,1.96,-14.2,25.7
2015-11-24 00:34:00,0.0,1.92207,0.00043,401.616,0.035,0.1655,0.0019,140.000,45.000,31702.56398,1.92522,402.417,33.127,45.069,45.000,0.00,0.09,-272.75,-272.81,-6,524,-952,19.5,5.6,-19.8,19.6,5.7,-19.6,5.73,2.04,-14.3,25.7
2015-11-24 00:35:00,0.0,1.92193,0.00035,401.593,0.032,0.1652,0.0020,140.001,45.000,31703.86760,1.92506,402.394,33.131,45.070,45.000,0.00,0.09,-272.74,-272.81,-6,524,-952,19.5,5.6,-19.8,19.6,5.7,-19.5,5.73,2.10,-14.2,25.7
2015-11-24 00:36:00,0.0,1.92198,0.00039,401.609,0.037,0.1656,0.0019,139.999,45.000,31702.06262,1.92513,402.413,33.127,45.070,45.000,0.00,0.09,-272.74,-272.79,-6,524,-952,19.5,5.6,-19.8,19.6,5.7,-19.6,5.73,2.10,-14.3,25.7
2015-11-24 00:37:00,0.0,1.92177,0.00037,401.543,0.030,0.1664,0.0018,139.998,45.000,31699.70625,1.92491,402.351,33.125,45.070,45.000,0.00,0.09,-272.75,-272.80,-6,524,-952,19.4,5.6,-19.8,19.6,5.7,-19.5,5.73,2.04,-14.3,25.7
2015-11-24 00:38:00,0.0,1.92177,0.00047,401.541,0.039,0.1674,0.0019,139.997,45.000,31698.61493,1.92495,402.351,33.123,45.070,45.000,0.00,0.09,-272.74,-272.81,-6,524,-952,19.5,5.7,-19.7,19.6,5.8,-19.4,5.73,1.96,-14.3,25.7
2015-11-24 00:39:00,0.0,1.92163,0.00031,401.556,0.045,0.1676,0.0015,139.998,45.000,31701.29620,1.92483,402.368,33.125,45.070,45.000,0.00,0.09,-272.73,-272.80,-6,524,-952,19.4,5.7,-19.7,19.6,5.8,-19.4,5.73,1.90,-14.3,25.7
2015-11-24 00:40:00,0.0,1.92148,0.00047,401.578,0.048,0.1658,0.0019,139.999,45.000,31702.92622,1.92461,402.380,33.128,45.070,45.000,0.00,0.09,-272.75,-272.81,-6,524,-952,19.5,5.6,-19.8,19.6,5.8,-19.5,5.73,1.91,-14.3,25.7
2015-11-24 00:41:00,0.0,1.92155,0.00037,401.611,0.040,0.1653,0.0020,140.000,45.000,31701.84376,1.92470,402.414,33.129,45.070,45.000,0.00,0.09,-272.75,-272.80,-6,524,-952,19.5,5.6,-19.8,19.6,5.7,-19.5,5.73,1.98,-14.3,25.7
2015-11-24 00:42:00,0.0,1.92138,0.00042,401.555,0.032,0.1676,0.0024,139.998,45.000,31700.05572,1.92454,402.368,33.125,45.070,45.000,0.00,0.09,-272.74,-272.80,-6,524,-952,19.5,5.7,-19.7,19.6,5.8,-19.5,5.73,2.06,-14.3,25.7
2015-11-24 00:43:00,0.0,1.92158,0.00037,401.572,0.040,0.1706,0.0021,139.998,45.000,31699.69605,1.92482,402.396,33.125,45.070,45.000,0.00,0.09,-272.74,-272.82,-6,524,-951,19.5,5.8,-19.5,19.6,5.8,-19.3,5.73,2.11,-14.3,25.7
2015-11-24 00:44:00,0.0,1.92188,0.00035,401.594,0.041,0.1690,0.0028,140.000,45.000,31700.96572,1.92508,402.415,33.125,45.070,45.000,0.00,0.09,-272.75,-272.80,-6,524,-952,19.5,5.7,-19.6,19.6,5.8,-19.3,5.73,2.09,-14.3,25.7
2015-11-24 00:45:00,0.0,1.92193,0.00039,401.601,0.029,0.1692,0.0024,139.997,45.001,31701.93562,1.92513,402.421,33.129,45.070,45.000,0.00,0.09,-272.74,-272.80,-6,524,-952,19.5,5.8,-19.5,19.6,5.9,-19.3,5.73,2.02,-14.3,25.7
2015-11-24 00:46:00,0.0,1.92187,0.00031,401.596,0.036,0.1682,0.0019,139.997,45.000,31699.79774,1.92507,402.411,33.167,45.069,45.000,0.00,0.09,-272.74,-272.79,-7,524,-951,19.4,5.7,-19.6,19.6,5.8,-19.3,5.73,1.93,-14.3,25.7
2015-11-24 00:47:00,0.0,1.92201,0.00034,401.616,0.038,0.1665,0.0020,140.001,45.000,31700.68489,1.92517,402.422,33.189,45.069,45.000,0.00,0.09,-272.75,-272.81,-6,524,-952,19.4,5.7,-19.7,19.5,5.8,-19.4,5.73,1.90,-14.3,25.7
2015-11-24 00:48:00,0.0,1.92175,0.00032,401.603,0.029,0.1694,0.0021,139.998,45.000,31698.40751,1.92496,402.423,33.186,45.069,45.000,0.00,0.09,-272.75,-272.80,-7,524,-951,19.4,5.8,-19.5,19.6,5.8,-19.3,5.73,1.93,-14.2,25.7
2015-11-24 00:49:00,0.0,1.92197,0.00031,401.647,0.031,0.1671,0.0021,139.999,44.999,31696.93315,1.92514,402.459,33.085,45.069,45.000,0.00,0.09,-272.74,-272.79,-6,524,-952,19.4,5.7,-19.7,19.6,5.8,-19.3,5.73,1.99,-14.2,25.6
2015-11-24 00:50:00,0.0,1.92211,0.00039,401.603,0.021,0.1681,0.0017,139.999,44.999,31691.71147,1.92532,402.418,32.897,45.070,45.001,0.00,0.09,-272.75,-272.80,-6,524,-952,19.4,5.7,-19.7,19.6,5.8,-19.4,5.73,2.06,-14.2,25.6
2015-11-24 00:51:00,0.0,1.92178,0.00039,401.650,0.061,0.1682,0.0016,139.994,44.999,31682.62220,1.92495,402.465,32.697,45.071,45.002,0.00,0.09,-272.75,-272.80,-6,524,-952,19.5,5.7,-19.7,19.5,5.8,-19.4,5.73,2.10,-14.1,25.5
2015-11-24 00:52:00,0.0,1.92178,0.00048,401.627,0.031,0.1684,0.0018,139.995,44.999,31674.76393,1.92497,402.443,32.526,45.072,45.003,0.00,0.09,-272.75,-272.80,-6,524,-952,19.5,5.7,-19.7,19.5,5.8,-19.4,5.73,2.08,-14.1,25.5
2015-11-24 00:53:00,0.0,1.92198,0.00037,401.633,0.035,0.1663,0.0021,139.998,44.999,31665.31322,1.92513,402.440,32.354,45.074,45.004,0.00,0.09,-272.75,-272.80,-6,524,-952,19.5,5.6,-19.8,19.5,5.8,-19.4,5.73,2.04,-14.0,25.4
2015-11-24 00:54:00,0.0,1.92192,0.00035,401.602,0.046,0.1691,0.0017,140.000,44.999,31654.84056,1.92513,402.421,32.179,45.075,45.005,0.00,0.09,-272.75,-272.81,-6,523,-952,19.5,5.7,-19.7,19.5,5.8,-19.4,5.73,1.98,-14.0,25.4
2015-11-24 00:55:00,0.0,1.92183,0.00029,401.635,0.028,0.1681,0.0024,139.999,44.999,31642.65276,1.92504,402.450,32.047,45.075,45.005,0.00,0.09,-272.74,-272.81,-6,523,-952,19.5,5.7,-19.7,19.5,5.8,-19.4,5.73,1.95,-13.9,25.4
2015-11-24 00:56:00,0.0,1.92176,0.00046,401.620,0.031,0.1686,0.0020,140.001,44.999,31633.84887,1.92496,402.437,31.999,45.074,45.004,0.00,0.09,-272.74,-272.80,-6,523,-952,19.4,5.7,-19.7,19.5,5.8,-19.4,5.73,1.93,-13.9,25.4
2015-11-24 00:57:00,0.0,1.92193,0.00033,401.611,0.027,0.1686,0.0024,140.000,45.000,31629.02357,1.92515,402.428,31.966,45.073,45.003,0.00,0.09,-272.75,-272.80,-7,523,-951,19.4,5.7,-19.7,19.5,5.8,-19.4,5.73,1.94,-13.9,25.4
2015-11-24 00:58:00,0.0,1.92206,0.00034,401.654,0.029,0.1683,0.0023,140.000,45.000,31625.87902,1.92526,402.468,31.944,45.071,45.001,0.00,0.09,-272.75,-272.80,-6,523,-951,19.4,5.7,-19.7,19.5,5.8,-19.4,5.73,1.95,-13.9,25.4
2015-11-24 00:59:00,0.0,1.92215,0.00040,401.650,0.037,0.1699,0.0026,139.999,44.999,31624.83258,1.92537,402.474,31.986,45.070,44.999,0.00,0.09,-272.75,-272.80,-6,523,-951,19.3,5.8,-19.6,19.5,5.9,-19.3,5.73,1.99,-13.9,25.4
2015-11-24 01:00:00,0.0,1.92264,0.00048,401.711,0.032,0.1690,0.0021,140.000,44.999,31624.82672,1.92582,402.529,32.001,45.069,44.998,0.00,0.09,-272.75,-272.80,-6,523,-951,19.3,5.8,-19.6,19.4,5.9,-19.3,5.73,2.04,-13.9,25.3
2015-11-24 01:01:00,0.0,1.92223,0.00042,401.697,0.027,0.1694,0.0016,139.998,44.999,31625.73524,1.92545,402.517,32.002,45.068,44.998,0.00,0.09,-272.75,-272.81,-6,523,-951,19.3,5.8,-19.6,19.4,5.9,-19.3,5.73,2.06,-13.9,25.3
2015-11-24 01:02:00,0.0,1.92274,0.00036,401.757,0.029,0.1683,0.0025,139.998,44.999,31624.29556,1.92591,402.573,32.048,45.067,44.997,0.00,0.09,-272.74,-272.80,-6,523,-951,19.3,5.8,-19.6,19.4,5.9,-19.3,5.73,2.08,-13.9,25.3
2015-11-24 01:03:00,0.0,1.92254,0.00040,401.715,0.044,0.1692,0.0028,139.998,44.999,31624.96530,1.92576,402.535,32.065,45.067,44.997,0.00,0.09,-272.74,-272.79,-7,523,-951,19.3,5.8,-19.6,19.4,5.9,-19.3,5.73,2.07,-13.9,25.3
2015-11-24 01:04:00,0.0,1.92260,0.00038,401.733,0.029,0.1689,0.0014,139.999,44.999,31625.91383,1.92582,402.552,32.104,45.067,44.997,0.00,0.09,-272.75,-272.80,-7,523,-951,19.3,5.8,-19.6,19.4,5.9,-19.3,5.73,2.04,-13.9,25.3
2015-11-24 01:05:00,0.0,1.92205,0.00039,401.709,0.046,0.1675,0.0023,139.999,44.999,31630.12773,1.92524,402.523,32.125,45.067,44.997,0.00,0.09,-272.75,-272.81,-7,523,-951,19.3,5.8,-19.7,19.4,5.9,-19.4,5.73,2.00,-14.0,25.3
2015-11-24 01:06:00,0.0,1.92210,0.00029,401.670,0.034,0.1677,0.0014,139.997,44.999,31632.61313,1.92527,402.481,32.167,45.067,44.998,0.00,0.09,-272.74,-272.80,-6,523,-951,19.3,5.7,-19.7,19.4,5.8,-19.4,5.73,1.96,-14.0,25.3
2015-11-24 01:07:00,0.0,1.92244,0.00042,401.695,0.023,0.1699,0.0021,140.000,44.999,31635.57250,1.92564,402.520,32.200,45.068,44.998,0.00,0.09,-272.75,-272.80,-7,523,-951,19.3,5.8,-19.6,19.4,5.9,-19.3,5.73,1.92,-14.0,25.3
2015-11-24 01:08:00,0.0,1.92244,0.00038,401.713,0.025,0.1699,0.0024,140.000,45.000,31639.53668,1.92568,402.536,32.220,45.068,44.998,0.00,0.09,-272.74,-272.81,-6,523,-951,19.3,5.8,-19.6,19.4,5.9,-19.3,5.73,1.92,-14.0,25.3
2015-11-24 01:09:00,0.0,1.92240,0.00036,401.746,0.028,0.1702,0.0018,140.002,45.000,31640.61132,1.92563,402.571,32.250,45.068,44.998,0.00,0.09,-272.75,-272.80,-7,523,-951,19.3,5.8,-19.5,19.4,5.9,-19.2,5.73,1.96,-14.0,25.3
2015-11-24 01:10:00,0.0,1.92258,0.00043,401.757,0.036,0.1693,0.0019,139.997,45.000,31641.52738,1.92581,402.577,32.276,45.069,44.999,0.00,0.09,-272.74,-272.80,-7,523,-951,19.2,5.8,-19.6,19.4,5.9,-19.3,5.73,2.01,-14.0,25.3
2015-11-24 01:11:00,0.0,1.92233,0.00043,401.706,0.034,0.1703,0.0021,139.999,45.000,31644.97588,1.92557,402.533,32.313,45.069,44.999,0.00,0.09,-272.75,-272.80,-6,523,-951,19.2,5.9,-19.5,19.4,5.9,-19.3,5.73,2.05,-14.0,25.4
2015-11-24 01:12:00,0.0,1.92241,0.00037,401.719,0.040,0.1692,0.0016,140.000,45.000,31646.69980,1.92559,402.539,32.358,45.069,44.999,0.00,0.09,-272.75,-272.80,-7,523,-951,19.2,5.8,-19.6,19.3,5.9,-19.3,5.73,2.08,-14.0,25.4
2015-11-24 01:13:00,0.0,1.92266,0.00029,401.778,0.034,0.1682,0.0017,140.001,45.000,31649.44003,1.92585,402.592,32.369,45.069,44.999,0.00,0.09,-272.74,-272.80,-7,523,-951,19.2,5.8,-19.6,19.3,5.9,-19.4,5.73,2.08,-14.0,25.3
2015-11-24 01:14:00,0.0,1.92221,0.00044,401.733,0.041,0.1702,0.0022,139.997,45.000,31648.69784,1.92545,402.561,32.373,45.069,44.999,0.00,0.09,-272.75,-272.80,-7,523,-951,19.2,5.9,-19.6,19.3,5.9,-19.3,5.73,2.05,-14.0,25.3
2015-11-24 01:15:00,0.0,1.92214,0.00039,401.707,0.033,0.1671,0.0018,139.997,45.000,31652.24827,1.92530,402.516,32.376,45.069,45.000,0.00,0.09,-272.75,-272.80,-6,523,-951,19.2,5.8,-19.7,19.3,5.9,-19.4,5.73,2.00,-14.0,25.4
2015-11-24 01:16:00,0.0,1.92231,0.00047,401.719,0.034,0.1674,0.0017,140.000,45.000,31654.87876,1.92551,402.530,32.423,45.070,45.000,0.00,0.09,-272.74,-272.80,-6,523,-951,19.2,5.8,-19.7,19.3,5.9,-19.4,5.73,1.95,-14.1,25.3
2015-11-24 01:17:00,0.0,1.92236,0.00040,401.689,0.037,0.1692,0.0020,139.999,45.000,31657.54068,1.92557,402.509,32.451,45.070,45.000,0.00,0.09,-272.74,-272.80,-6,523,-951,19.2,5.8,-19.6,19.3,5.9,-19.4,5.73,1.93,-14.1,25.4
2015-11-24 01:18:00,0.0,1.92241,0.00041,401.697,0.038,0.1698,0.0011,139.999,45.001,31659.51377,1.92561,402.521,32.496,45.070,45.000,0.00,0.09,-272.74,-272.81,-6,523,-951,19.2,5.9,-19.5,19.3,5.9,-19.3,5.73,1.93,-14.1,25.4
2015-11-24 01:19:00,0.0,1.92210,0.00036,401.655,0.040,0.1697,0.0013,139.997,45.001,31659.80887,1.92533,402.477,32.506,45.070,45.000,0.00,0.09,-272.75,-272.80,-6,523,-951,19.2,5.8,-19.6,19.3,5.9,-19.3,5.73,1.96,-14.1,25.4
2015-11-24 01:20:00,0.0,1.92180,0.00038,401.624,0.050,0.1703,0.0021,139.998,45.000,31660.00211,1.92505,402.451,32.539,45.070,45.000,0.00,0.09,-272.75,-272.80,-6,523,-951,19.2,5.9,-19.5,19.3,5.9,-19.3,5.73,2.01,-14.1,25.3
2015-11-24 01:21:00,0.0,1.92171,0.00038,401.578,0.042,0.1710,0.0024,139.999,45.000,31660.79033,1.92497,402.406,32.559,45.070,45.000,0.00,0.09,-272.75,-272.81,-6,523,-951,19.2,5.9,-19.5,19.3,6.0,-19.2,5.73,2.07,-14.1,25.4
2015-11-24 01:22:00,0.0,1.92166,0.00037,401.569,0.027,0.1713,0.0020,139.996,45.000,31659.92165,1.92491,402.402,32.566,45.070,45.000,0.00,0.09,-272.74,-272.80,-6,523,-951,19.2,5.9,-19.5,19.3,6.0,-19.2,5.73,2.09,-14.1,25.4
2015-11-24 01:23:00,0.0,1.92182,0.00024,401.580,0.051,0.1706,0.0020,140.000,45.000,31661.50982,1.92505,402.406,32.603,45.070,45.000,0.00,0.09,-272.74,-272.80,-6,523,-951,19.2,5.9,-19.5,19.3,6.0,-19.2,5.73,2.08,-14.1,25.4
2015-11-24 01:24:00,0.0,1.92161,0.00037,401.583,0.033,0.1704,0.0020,139.999,45.000,31664.69412,1.92485,402.409,32.607,45.070,45.000,0.00,0.09,-272.75,-272.80,-6,523,-951,19.2,5.9,-19.5,19.3,6.0,-19.2,5.73,2.04,-14.1,25.4
2015-11-24 01:25:00,0.0,1.92148,0.00041,401.580,0.037,0.1690,0.0021,140.002,45.000,31667.65001,1.92468,402.399,32.622,45.070,45.000,0.00,0.09,-272.75,-272.80,-6,523,-951,19.2,5.9,-19.5,19.3,5.9,-19.3,5.73,1.98,-14.1,25.4
2015-11-24 01:26:00,0.0,1.92192,0.00047,401.621,0.036,0.1705,0.0018,139.999,45.000,31667.84597,1.92513,402.446,32.625,45.070,45.000,0.00,0.09,-272.74,-272.80,-6,523,-951,19.2,5.9,-19.5,19.3,6.0,-19.2,5.73,1.94,-14.1,25.4
2015-11-24 01:27:00,0.0,1.92181,0.00038,401.617,0.045,0.1704,0.0017,140.000,45.000,31665.82079,1.92508,402.445,32.652,45.070,45.000,0.00,0.09,-272.74,-272.80,-6,523,-950,19.2,5.9,-19.4,19.3,6.0,-19.2,5.73,1.92,-14.1,25.4
2015-11-24 01:28:00,0.0,1.92138,0.00043,401.530,0.032,0.1738,0.0027,139.999,45.000,31669.78489,1.92468,402.372,32.682,45.070,45.000,0.00,0.09,-272.75,-272.81,-6,523,-951,19.2,6.0,-19.2,19.3,6.1,-19.1,5.73,1.94,-14.1,25.4
2015-11-24 01:29:00,0.0,1.92163,0.00038,401.585,0.034,0.1718,0.0014,139.999,45.000,31669.40277,1.92490,402.417,32.691,45.070,45.000,0.00,0.09,-272.74,-272.80,-6,523,-951,19.2,6.0,-19.3,19.3,6.1,-19.1,5.73,1.99,-14.2,25.4
2015-11-24 01:30:00,0.0,1.92165,0.00050,401.574,0.039,0.1715,0.0020,140.000,45.000,31669.03265,1.92488,402.406,32.713,45.070,45.000,0.00,0.09,-272.74,-272.79,-6,523,-951,19.2,5.9,-19.4,19.3,6.0,-19.1,5.73,2.04,-14.2,25.4
2015-11-24 01:31:00,0.0,1.92168,0.00033,401.597,0.033,0.1720,0.0013,139.998,45.000,31670.91776,1.92495,402.430,32.728,45.070,45.000,0.00,0.09,-272.75,-272.80,-6,523,-951,19.2,5.9,-19.4,19.3,6.0,-19.1,5.73,2.08,-14.2,25.4
2015-11-24 01:32:00,0.0,1.92183,0.00048,401.615,0.040,0.1724,0.0025,139.997,45.001,31670.77687,1.92510,402.450,32.747,45.070,45.000,0.00,0.09,-272.75,-272.80,-6,523,-951,19.2,5.9,-19.4,19.3,6.0,-19.1,5.73,2.09,-14.2,25.4
2015-11-24 01:33:00,0.0,1.92170,0.00038,401.628,0.034,0.1707,0.0018,139.999,45.001,31670.54976,1.92493,402.456,32.762,45.070,45.000,0.00,0.09,-272.74,-272.81,-6,523,-951,19.2,5.9,-19.5,19.3,6.0,-19.2,5.73,2.06,-14.2,25.4
2015-11-24 01:34:00,0.0,1.92180,0.00036,401.611,0.035,0.1721,0.0023,139.999,45.000,31670.77795,1.92508,402.446,32.769,45.070,45.000,0.00,0.09,-272.74,-272.81,-6,523,-950,19.2,5.9,-19.4,19.3,6.0,-19.2,5.73,2.02,-14.2,25.4
2015-11-24 01:35:00,0.0,1.92187,0.00048,401.618,0.040,0.1720,0.0019,139.999,45.000,31670.83551,1.92513,402.451,32.770,45.070,45.000,0.00,0.09,-272.74,-272.81,-6,523,-950,19.2,5.9,-19.4,19.3,6.0,-19.1,5.73,1.96,-14.2,25.4
2015-11-24 01:36:00,0.0,1.92199,0.00036,401.655,0.026,0.1705,0.0018,139.998,45.000,31669.74834,1.92523,402.482,32.787,45.070,45.000,0.00,0.09,-272.74,-272.80,-6,523,-950,19.2,5.9,-19.5,19.3,6.0,-19.2,5.73,1.92,-14.2,25.4
2015-11-24 01:37:00,0.0,1.92174,0.00044,401.612,0.041,0.1705,0.0021,139.998,45.000,31668.97364,1.92500,402.439,32.813,45.070,45.000,0.00,0.09,-272.74,-272.80,-6,523,-950,19.2,5.9,-19.5,19.3,6.0,-19.2,5.73,1.92,-14.2,25.5
2015-11-24 01:38:00,0.0,1.92189,0.00046,401.634,0.040,0.1714,0.0019,139.998,45.000,31670.36187,1.92512,402.464,32.860,45.070,45.000,0.00,0.09,-272.76,-272.80,-6,523,-950,19.2,5.9,-19.5,19.3,6.0,-19.2,5.73,1.96,-14.2,25.4
2015-11-24 01:39:00,0.0,1.92191,0.00037,401.649,0.037,0.1698,0.0016,139.996,45.000,31671.98720,1.92512,402.472,32.874,45.070,45.000,0.00,0.09,-272.75,-272.80,-6,523,-950,19.2,5.8,-19.6,19.3,6.0,-19.3,5.73,2.02,-14.2,25.4
2015-11-24 01:40:00,0.0,1.92212,0.00034,401.682,0.038,0.1692,0.0014,139.998,45.001,31673.85192,1.92533,402.503,32.872,45.070,45.000,0.00,0.09,-272.74,-272.79,-6,523,-950,19.2,5.8,-19.6,19.3,5.9,-19.3,5.73,2.07,-14.2,25.4
2015-11-24 01:41:00,0.0,1.92175,0.00038,401.637,0.028,0.1708,0.0016,139.998,45.000,31675.05062,1.92500,402.465,32.870,45.070,45.000,0.00,0.09,-272.75,-272.80,-6,523,-950,19.2,5.9,-19.5,19.3,6.0,-19.2,5.73,2.10,-14.2,25.5
2015-11-24 01:42:00,0.0,1.92179,0.00035,401.627,0.035,0.1703,0.0012,139.997,45.000,31673.77161,1.92503,402.452,32.875,45.070,45.000,0.00,0.09,-272.74,-272.80,-6,523,-950,19.2,5.9,-19.5,19.3,6.0,-19.2,5.73,2.07,-14.2,25.5
2015-11-24 01:43:00,0.0,1.92158,0.00032,401.619,0.025,0.1698,0.0014,140.001,45.000,31675.08279,1.92481,402.442,32.875,45.070,45.000,0.00,0.09,-272.74,-272.80,-6,523,-950,19.2,5.9,-19.5,19.3,6.0,-19.2,5.73,2.02,-14.2,25.5
2015-11-24 01:44:00,0.0,1.92164,0.00039,401.619,0.042,0.1694,0.0020,139.998,45.000,31675.76892,1.92484,402.441,32.873,45.070,45.000,0.00,0.09,-272.74,-272.80,-6,523,-950,19.2,5.9,-19.5,19.3,6.0,-19.3,5.73,1.96,-14.2,25.5
2015-11-24 01:45:00,0.0,1.92157,0.00053,401.586,0.060,0.1709,0.0018,139.998,45.000,31675.28064,1.92483,402.416,32.874,45.070,45.000,0.00,0.09,-272.75,-272.80,-6,523,-950,19.2,5.9,-19.5,19.3,6.0,-19.2,5.73,1.92,-14.3,25.5